Regional Weather Roundup
Issued by NWS Memphis, TN

Home | Current Version | Previous Version | Text Only | Print | Product List | Glossary On
Versions: 1 2 3 4 5 6 7 8 9 10 11 12 13 14 15 16 17 18 19 20 21 22 23 24 25 26 27 28 29 30 31 32 33 34 35 36 37 38 39 40 41 42 43 44 45 46 47 48 49 50
000
ASUS44 KMEG 292010
RWRMEG
MEMPHIS CWA HOURLY WEATHER ROUNDUP
NATIONAL WEATHER SERVICE MEMPHIS TN
300 PM CDT FRI MAY 29 2015

...WEST TENNESSEE...

CITY           SKY/WX    TMP DP  RH WIND       PRES   REMARKS
MEMPHIS INTL   PTSUNNY   84  70  62 S8        30.04F
NWS MEMPHIS      N/A     82 N/A N/A MISG        N/A
JACKSON        SUNNY     84  69  60 S8        30.06F
LEXINGTON      SUNNY     81  70  69 S5        30.08F
DYERSBURG      PTSUNNY   82  61  47 SE6       30.04F
PARIS          MOSUNNY   81  68  65 S7        30.07F


...EASTERN ARKANSAS...

CITY           SKY/WX    TMP DP  RH WIND       PRES   REMARKS
JONESBORO      LGT RAIN  79  74  84 SW5       30.00F
WEST MEMPHIS     N/A     83  72  69 SE14      30.01F
BATESVILLE     MOSUNNY   86  70  58 E12       29.98F HX  90
NEWPORT        PTSUNNY   88  72  58 S12G22    29.99F HX  94
WALNUT RIDGE   PTSUNNY   84  70  61 S10       29.99F
BLYTHEVILLE    MOSUNNY   82  67  60 SE15G22   30.03F
NW BLYTHEVILLE PTSUNNY   84  70  61 SE12G21   30.02F
SEARCY         PTSUNNY   87  73  62 S12       29.99  HX  94
STUTTGART      PTSUNNY   88  72  58 MISG      29.99F HX  94
PINE BLUFF     MOSUNNY   86  69  56 S14       29.97F HX  90
MONTICELLO     MOSUNNY   87  70  56 S12       29.98F HX  92


...NORTH MISSISSIPPI...

CITY           SKY/WX    TMP DP  RH WIND       PRES   REMARKS
TUPELO         MOSUNNY   82  67  60 S10       30.07F
OXFORD         PTSUNNY   81  70  69 SW14      30.07F
OLIVE BRANCH   PTSUNNY   79  77  94 S8        30.05F
TUNICA         LGT RAIN  82  72  69 S14       30.03F
CLARKSDALE     MOSUNNY   81  72  74 CALM      30.03F
CORINTH        MOSUNNY   82  68  61 S6G12     30.07F
GREENWOOD      LGT RAIN  74  70  87 NE12      30.05F FOG
COLUMBUS       MOSUNNY   84  69  61 S12       30.08F
STARKVILLE     FAIR      81  70  69 SE12G17   30.08F
GOLDEN TRIANGL MOSUNNY   82  68  61 SE14      30.10F


...SOUTHEAST MISSOURI...

CITY           SKY/WX    TMP DP  RH WIND       PRES   REMARKS
WEST PLAINS    PTSUNNY   82  67  60 SE6       30.01F
POPLAR BLUFF   MOSUNNY   85  67  54 S8        30.00F
CAPE GIRARDEAU SUNNY     83  70  64 S13       30.02F


...NORTHWEST ALABAMA...

CITY           SKY/WX    TMP DP  RH WIND       PRES   REMARKS
MUSCLE SHOALS  MOSUNNY   82  66  58 S9        30.11F


...MIDDLE TENNESSEE...

CITY           SKY/WX    TMP DP  RH WIND       PRES   REMARKS
NASHVILLE      PTSUNNY   84  69  60 S12       30.11F
CLARKSVILLE    PTSUNNY   81  68  64 S8        30.08F
COLUMBIA       MOSUNNY   84  70  61 S10       30.09F


...WESTERN KENTUCKY...

CITY           SKY/WX    TMP DP  RH WIND       PRES   REMARKS
PADUCAH        PTSUNNY   83  66  56 S10       30.03F
FORT CAMPBELL  SUNNY     81  70  68 S10       30.07F


...CENTRAL ARKANSAS...

CITY           SKY/WX    TMP DP  RH WIND       PRES   REMARKS
LITTLE ROCK    PTSUNNY   87  69  54 SE14      29.96F HX  91


SKY/WX REPORTED AS FAIR MEANS FEW OR NO CLOUDS BELOW
12 THOUSAND FEET.




USA.gov is the U.S. government's official web portal to all federal, state and local government web resources and services.